User: anonymous   Login
Location: Unspecified
(0.0000°N, 0.0000°E)
Time: 13:16:31
(UTC+00:00)
Language:

ROBUSTA 1B - Orbit

View from above orbital plane
View from above orbital plane
View from above satellite
View from above satellite

Ground track
Ground track

The orbit data is extracted from the following two-line orbital elements,

1 42792U 17036AD  18287.61617859 +.00001708 +00000-0 +76982-4 0  9992
2 42792 097.3879 345.5905 0011872 026.6988 333.4857 15.22347902072690
Epoch (UTC): 14 October 2018 14:47:17
Eccentricity: 0.0011872
inclination: 97.3879°
perigee height: 490 km
apogee height: 507 km
right ascension of ascending node: 345.5905°
argument of perigee: 26.6988°
revolutions per day: 15.22347902
mean anomaly at epoch: 333.4857°
orbit number at epoch: 7269

The dashed part of the orbit path shows where the satellite is in the earth's shadow,  

DLR